This is the latest recevied weather packets stored in our database for station/object CT1ETE-13. If no packets are shown the sender has not sent any weather packets the latest 1 day(s).
| Time | Temp. | Humidity | Pressure | Rain* | Wind** | Luminosity | Snow |
|---|---|---|---|---|---|---|---|
| 1777982797 | 14.44° C | 74% | 1016.2 hPa | 0 mm | 3.13 m/s, 234° | - | - |
| 1777981896 | 14.44° C | 73% | 1016.3 hPa | 0 mm | 2.68 m/s, 240° | - | - |
| 1777980995 | 14.44° C | 67% | 1016.4 hPa | 0 mm | 1.79 m/s, 263° | - | - |
| 1777980096 | 14.44° C | 69% | 1016.3 hPa | 0 mm | 2.24 m/s, 300° | - | - |
| 1777979193 | 14.44° C | 70% | 1016.4 hPa | 0 mm | 2.24 m/s, 293° | - | - |
| 1777978297 | 14.44° C | 72% | 1016.5 hPa | 0 mm | 2.24 m/s, 284° | - | - |
| 1777977393 | 13.89° C | 73% | 1016.5 hPa | 0 mm | 2.68 m/s, 289° | - | - |
| 1777976494 | 13.89° C | 75% | 1016.4 hPa | 0 mm | 2.24 m/s, 244° | - | - |
| 1777975591 | 13.89° C | 74% | 1016.4 hPa | 0 mm | 2.68 m/s, 242° | - | - |
| 1777974691 | 13.33° C | 77% | 1016.4 hPa | 0 mm | 1.34 m/s, 244° | - | - |
| 1777973789 | 12.78° C | 79% | 1016.4 hPa | 0 mm | 1.79 m/s, 251° | - | - |
| 1777972885 | 12.22° C | 80% | 1016.3 hPa | 0 mm | 1.34 m/s, 198° | - | - |
| 1777971985 | 12.78° C | 80% | 1016.4 hPa | 0 mm | 1.34 m/s, 238° | - | - |
| 1777971086 | 12.22° C | 81% | 1016.4 hPa | 0 mm | 0.45 m/s, 259° | - | - |
| 1777970185 | 11.67° C | 83% | 1016.4 hPa | 0 mm | 0.89 m/s, 236° | - | - |
| 1777969285 | 11.11° C | 84% | 1016.4 hPa | 0 mm | 0.45 m/s, 194° | - | - |
| 1777968383 | 11.11° C | 84% | 1016.4 hPa | 0 mm | 0.45 m/s, 194° | - | - |
| 1777967481 | 11.11° C | 84% | 1016.3 hPa | 0 mm | 0 m/s | - | - |
| 1777966581 | 11.11° C | 86% | 1016.3 hPa | 0 mm | 0.45 m/s, 109° | - | - |
| 1777965681 | 10.56° C | 86% | 1016.3 hPa | 0 mm | 0 m/s | - | - |
| 1777964782 | 10° C | 85% | 1016.2 hPa | 0 mm | 0.45 m/s, 110° | - | - |
| 1777963881 | 10° C | 85% | 1016 hPa | 0 mm | 0.45 m/s, 110° | - | - |
| 1777962981 | 9.44° C | 86% | 1015.9 hPa | 0 mm | 1.34 m/s, 110° | - | - |
| 1777962081 | 10° C | 84% | 1016 hPa | 0 mm | 0.45 m/s, 228° | - | - |
| 1777961178 | 9.44° C | 84% | 1015.8 hPa | 0 mm | 0 m/s | - | - |
* Rain latest hour (hover to see other rain measurements)
** Current wind speed in m/s (hover to see current wind gust speed)